Location: Saint-Palais-sur-Mer
(45.6429°N, 1.0859°W)
Time: 00:11:29
(UTC+01:00)

Vanguard 1 - Pass Details

Date: 17 February 2026
Orbit: 653 x 3818 km, 34.2° (Epoch: 12 March)

Event Time Altitude Azimuth Distance (km) Brightness Sun altitude
Rises 01:06:09 0° 276° (W) 7,747 14.7 -56.3°
Reaches altitude 10° 01:16:58 10° 253° (WSW) 6,919 14.2 -56.4°
Enters shadow 01:19:43 11° 246° (WSW) 6,784 14.1 -56.4°
